Regional Weather Roundup
Issued by NWS

Home | Current Version | Previous Version | Graphics & Text | Print | Product List | Glossary On
Versions: 1 2 3 4 5 6 7 8 9 10 11 12 13 14 15 16 17 18 19 20 21 22 23 24 25 26 27 28 29 30 31 32 33 34 35 36 37 38 39 40 41 42 43 44 45 46 47 48 49 50
000
ASUS43 KLOT 200503
RWRIL

ILLINOIS REGIONAL WEATHER ROUNDUP
NATIONAL WEATHER SERVICE CHICAGO/ROMEOVILLE IL
1200 AM CDT FRI APR 20 2018

NOTE: "FAIR" INDICATES FEW OR NO CLOUDS BELOW 12,000 FEET WITH NO
SIGNIFICANT WEATHER AND/OR OBSTRUCTIONS TO VISIBILITY.

* THESE STATIONS ARE NOT UNDER NWS QUALITY CONTROL. THEY ALSO MAY NOT
  REPORT WEATHER SUCH AS PRECIPITATION OR FOG.

ILZ001-002-007-009-015-016-024-200600-
NORTHWEST ILLINOIS

CITY           SKY/WX    TMP DP  RH WIND       PRES   REMARKS
MOLINE         FAIR      32  27  81 CALM      30.45S
STERLING*      FAIR      37  29  72 CALM      30.45S
SAVANNA*       FAIR      33  26  76 NE3       30.45S
$$

ILZ003-004-008-010-011-017-018-200600-
NORTH CENTRAL ILLINOIS

CITY           SKY/WX    TMP DP  RH WIND       PRES   REMARKS
ROCKFORD       FAIR      32  25  75 CALM      30.46S
FREEPORT*      FAIR      32  26  78 CALM      30.47R
ROCHELLE*      FAIR      31  28  92 CALM      30.46R
DE KALB*       FAIR      36  22  56 CALM      30.44S
PERU*          FAIR      35  30  80 CALM      30.46R
$$

ILZ005-006-012>014-019>023-200600-
NORTHEAST ILLINOIS

CITY           SKY/WX    TMP DP  RH WIND       PRES   REMARKS
CHICAGO-OHARE  FAIR      40  23  50 NW7       30.43R
CHICAGO-MIDWAY FAIR      39  25  57 W3        30.44R
AURORA         FAIR      28  25  88 CALM      30.44S
LANSING*       FAIR      33  30  89 CALM      30.44R
JOLIET*        FAIR      34  27  76 CALM      30.44S
WAUKEGAN       NOT AVBL
DUPAGE AIRPORT FAIR      33  24  69 CALM      30.43S
KANKAKEE*      FAIR      33  25  71 NW5       30.45S WCI  29
WHEELING       FAIR      39  25  57 CALM      30.45R
MORRIS*        FAIR      36  24  62 CALM      30.44R
ROMEOVILLE*    FAIR      37  24  61 N3        30.44S
$$

LMZ740>746-200600-
SOUTHERN LAKE MICHIGAN

STATION/POSITION SKY/WX   TEMP    WIND        PRES    VSBY  WAVE
                          AIR SEA DIR/SP/G                  HT/PER
                          (F)     (DEG/KT/KT) (MB)    (MI)  (FT/S)
HARRISON CRIB              44     300/ 10/ 10   N/A
BURNHAM HARBOR             44     240/  6/ 10   N/A
CALUMET HARBOR             42     280/  4/  6 1029.8R
BURNS HARBOR               41     300/  6/  8 1031.2R
MICHIGAN CITY              39     300/ 10/ 11   N/A
$$

ILZ025>027-034>036-040-047-049-050-058-095>099-200600-
WEST-CENTRAL ILLINOIS

CITY           SKY/WX    TMP DP  RH WIND       PRES   REMARKS
QUINCY         CLEAR     41  24  51 NE7       30.43R
GALESBURG*     FAIR      38  28  68 NE5       30.45S WCI  34
MACOMB*        CLEAR     37  26  64 NE3       30.46S
JACKSONVILLE*  CLEAR     39  25  57 NE6       30.43S WCI  35
PITTSFIELD*    CLEAR     42  29  61 CALM      30.44R
$$

ILZ028>032-037-038-041>044-048-051>054-059>061-200600-
CENTRAL ILLINOIS

CITY           SKY/WX    TMP DP  RH WIND       PRES   REMARKS
PONTIAC        FAIR      33  27  78 NE6       30.45S WCI  28
BLOOMINGTON    FAIR      38  28  67 N6        30.45R WCI  33
DECATUR        FAIR      40  29  64 N9        30.43S
PEORIA         FAIR      42  27  55 NE3       30.45S
LACON*         FAIR      32  28  85 CALM      30.45R
LINCOLN*       FAIR      41  30  64 N5        30.44S
SPRINGFIELD    FAIR      41  28  60 NE8       30.44R
TAYLORVILLE    FAIR      38  28  67 NE6       30.43S WCI  34
$$

ILZ033-039-045-046-055>057-062-063-200600-
EAST-CENTRAL ILLINOIS

CITY           SKY/WX    TMP DP  RH WIND       PRES   REMARKS
CHAMPAIGN      FAIR      39  22  50 NE7       30.43R WCI  34
DANVILLE*      FAIR      33  23  67 N6        30.40S WCI  27
RANTOUL*       FAIR      39  29  69 NE5       30.43S
MATTOON        FAIR      37  30  75 NE6       30.42R WCI  32
PARIS*         FAIR      39  20  45 CALM      30.43S
$$

ILZ079-100>102-200600-
SOUTHWEST ILLINOIS

CITY           SKY/WX    TMP DP  RH WIND       PRES   REMARKS
BELLEVILLE     CLEAR     42  30  62 N3        30.41R
CAHOKIA*       CLEAR     36  31  82 CALM      30.42R
SPARTA*        CLEAR     43  36  75 N3        30.42S
$$

ILZ064>066-069>071-074>076-080>082-084>086-088>090-092>094-200600-
SOUTH-CENTRAL ILLINOIS

CITY           SKY/WX    TMP DP  RH WIND       PRES   REMARKS
CARBONDALE     FAIR      39  35  86 NW3       30.40S
CAIRO*         FAIR      38  36  91 CALM      30.39S
EFFINGHAM*     FAIR      45  32  60 N5        30.43S
MARION         FAIR      38  33  81 CALM      30.40S
MT. VERNON     FAIR      34  33  96 CALM      30.41S
CENTRALIA*     CLEAR     38  35  87 CALM      30.41R
SALEM*         FAIR      44  30  58 N5        30.41S
METROPOLIS*    FAIR      38  34  86 CALM      30.39S
$$

ILZ067-068-072-073-078-083-087-091-200600-
SOUTHEAST ILLINOIS

CITY           SKY/WX    TMP DP  RH WIND       PRES   REMARKS
LAWRENCEVILLE  FAIR      43  27  53 NE7       30.41R
FLORA*         FAIR      44  32  62 N5        30.41S
FAIRFIELD*     FAIR      43  31  63 N3        30.40R
HARRISBURG*    FAIR      39  33  78 N6        30.40S WCI  35
ROBINSON*      FAIR      40  23  50 NE9       30.43R
CARMI*         FAIR      38  34  85 N6        30.39S WCI  33
$$

ABBREVIATIONS USED IN REMARKS
   TC - TEMPERATURE IN CELSIUS
  WCI - WIND CHILL INDEX
   HX - HEAT INDEX
  VSB - VISIBILITY
$$




USA.gov is the U.S. government's official web portal to all federal, state and local government web resources and services.